Location: Wapato
(46.4478°N, 120.4212°W)
Time: 10:06:18
(UTC+00:00)

Injun/Solrad 3 - Pass Details

Date: 10 May 2026
Orbit: 867 x 989 km, 66.8° (Epoch: 10 June)

Event Time Altitude Azimuth Distance (km) Brightness Sun altitude
Rises 00:50:19 0° 206° (SSW) 3,498 11.2 24.2°
Reaches altitude 10° 00:52:46 10° 205° (SSW) 2,578 10.6 23.8°
Maximum altitude 00:58:46 78° 120° (ESE) 949 8.2 22.8°
Drops below altitude 10° 01:05:00 10° 36° (NE) 2,680 10.1 21.7°
Sets 01:07:35 0° 35° (NE) 3,646 10.7 21.3°
